Temp
9 9 9 9 8 8 8 8 8 9 8 8 8 8 8 8 8 9 9 10 11 11 11 12 12 13 14 9 10 12 14 15 16 17 16 16 16 15 15 15 15 15 15 14 14 14 14
10 9 9 9 8 8 8 8 8 8 8 8 8 8 8 8 8 9 9 10 10 11 11 11 12 13 13 9 12 12 14 16 16 16 15 15 15 15 14 14 14 14 13 14 14 14 14
9 9 9 9 8 8 8 8 8 8 8 8 8 8 8 8 8 9 10 10 10 10 10 10 11 12 11 10 12 14 14 15 16 16 14 14 15 15 14 14 14 14 14 14 14 14 14
9 9 9 9 8 8 8 8 8 8 8 8 8 8 8 9 9 9 10 10 9 10 10 12 13 14 11 13 13 14 14 15 16 16 16 16 17 13 14 13 13 14 13 15 15 14 14
9 9 9 9 9 8 8 8 8 8 8 7 7 8 9 8 9 9 9 9 10 10 11 12 14 12 11 13 13 13 14 14 15 16 16 16 15 11 11 11 11 11 14 15 15 14 14
9 9 9 9 8 8 8 8 8 8 8 8 8 8 8 8 8 9 9 10 11 11 12 13 13 11 12 11 12 13 14 15 14 14 14 12 9 9 8 7 10 14 14 15 15 13 13
8 8 8 8 8 8 8 8 8 8 8 7 8 8 8 8 10 9 10 10 9 9 9 8 9 10 10 12 13 13 13 14 14 11 12 9 7 8 11 12 12 13 13 14 14 13 12
8 8 8 8 8 8 8 8 8 8 9 8 9 9 9 9 10 11 10 8 6 8 9 10 10 10 11 11 12 12 14 13 13 11 12 9 8 11 12 11 11 12 13 12 11 13 12
8 8 8 8 8 8 8 9 9 9 9 9 9 9 10 10 10 10 9 7 8 9 9 10 10 10 11 12 11 11 12 13 11 10 9 9 11 12 12 11 11 11 11 12 11 11 11
7 7 8 8 8 8 8 8 9 9 9 9 9 10 10 11 12 9 9 9 9 9 7 9 11 12 13 12 12 13 13 13 11 10 10 10 12 12 11 11 9 13 12 12 11 9 10
7 7 7 7 7 7 7 8 9 9 9 10 10 11 11 12 10 9 9 9 10 10 9 11 11 14 13 12 12 12 13 12 11 11 11 11 11 12 12 11 12 12 12 12 12 10 7
7 7 7 7 7 7 7 9 10 11 10 10 10 11 11 11 11 10 9 9 9 8 8 10 12 12 13 12 12 13 13 12 12 10 10 10 11 12 12 12 12 12 11 10 10 8 6
7 8 7 7 7 7 7 8 11 11 11 11 10 10 10 10 10 10 9 8 7 6 10 11 12 12 12 12 12 12 12 11 9 8 5 9 11 11 12 12 12 11 9 6 8 6 9
7 8 9 9 9 8 8 7 9 11 11 11 10 10 10 10 10 9 9 7 7 7 9 11 12 12 12 12 13 12 12 8 11 9 5 6 9 11 12 12 12 12 10 6 10 7 7
7 7 8 9 9 10 9 8 9 10 12 12 11 11 10 10 9 9 6 6 6 7 11 12 12 11 12 13 12 12 12 10 12 11 10 6 9 12 11 12 12 12 9 10 6 2 6
7 7 7 8 9 9 10 9 10 11 12 12 11 10 10 9 9 8 6 8 10 10 12 12 12 12 12 12 12 12 12 12 12 12 11 10 9 11 12 12 12 12 11 9 7 8 9
8 8 8 8 9 9 10 10 11 12 12 11 11 8 10 9 9 6 6 8 11 12 12 12 12 12 12 12 12 12 12 12 12 12 12 11 10 11 12 10 10 10 10 10 9 8 8
8 8 8 9 9 9 10 11 12 12 12 11 9 9 10 9 7 4 5 11 12 12 12 12 12 13 13 13 13 13 13 13 12 12 12 12 9 8 10 11 10 10 10 9 9 10 7
9 9 9 9 9 10 11 11 12 12 12 11 8 8 10 9 7 4 11 11 12 12 12 13 13 13 13 13 13 13 13 12 12 12 12 12 9 6 10 10 10 11 10 10 9 8 8
10 10 10 9 10 10 12 12 12 12 12 11 7 8 8 6 6 9 11 12 12 12 12 13 13 13 13 13 13 13 13 12 12 12 12 11 8 9 10 13 10 10 10 9 10 7 9
10 10 10 11 11 11 12 13 13 13 12 11 5 8 8 7 9 11 11 11 12 12 12 12 12 13 13 13 13 12 13 12 11 12 11 10 9 7 8 8 9 10 11 9 9 11 10
9 9 10 10 10 11 12 13 13 13 13 11 8 8 6 7 9 12 10 12 12 13 12 12 12 13 12 12 12 11 12 11 11 10 10 8 8 8 5 8 8 8 9 9 10 11 11
8 8 9 10 10 10 11 12 12 13 13 9 7 7 8 7 8 9 10 12 13 13 12 12 12 12 12 11 11 11 10 10 11 9 8 8 7 7 8 8 7 8 9 9 9 8 10
8 8 9 9 10 10 10 11 11 11 11 10 7 6 8 10 8 10 12 12 12 12 12 12 11 11 12 10 10 9 8 7 7 8 8 7 7 6 7 7 9 13 10 10 10 10 9
8 8 8 8 8 9 9 9 10 11 10 9 7 7 6 9 8 10 11 11 11 10 11 11 11 10 9 9 9 9 9 10 8 8 6 7 8 7 6 4 9 12 13 10 11 12 10
7 7 7 7 8 8 8 8 8 9 10 10 8 7 6 8 9 11 10 11 9 9 9 10 9 9 8 7 8 11 11 12 11 9 5 6 7 8 6 8 10 13 12 12 12 11 13
8 8 7 7 7 8 8 8 8 8 8 9 8 7 7 6 7 9 9 10 8 7 8 8 10 9 8 7 9 8 8 10 11 11 8 7 6 8 8 8 9 10 11 12 14 14 14
8 8 8 8 7 7 8 8 8 8 8 8 7 7 7 5 6 8 9 9 8 7 9 8 8 7 6 8 8 8 7 9 10 10 8 7 6 7 7 7 8 10 10 12 12 12 13
8 9 8 8 8 8 8 8 8 8 8 8 8 7 6 4 6 7 8 8 8 8 7 7 8 7 7 6 5 6 8 7 8 10 7 9 9 8 8 9 10 9 10 10 9 9 9
Height
812 808 802 797 793 791 789 785 783 780 778 774 772 771 771 771 771 771 773 773 771 772 774 778 783 788 788 796 803 800 797 796 795 794 794 795 798 803 812 814 815 820 824 826 828 828 829
813 809 803 799 795 793 790 787 786 784 782 779 778 776 776 775 776 775 775 774 774 776 779 783 787 788 790 804 802 800 798 797 797 796 797 797 800 804 812 818 819 824 828 830 830 830 831
816 811 806 802 799 796 794 791 788 786 784 783 782 783 781 779 778 776 776 777 779 781 784 789 791 792 795 806 802 801 800 799 799 799 799 801 801 805 811 820 823 826 832 832 833 832 833
820 814 810 807 803 799 796 794 792 789 788 787 787 785 784 782 780 778 780 782 784 787 791 793 790 794 805 805 804 803 802 802 802 802 801 804 804 808 815 821 828 832 839 839 832 832 832
823 818 813 810 806 803 800 797 794 793 792 792 791 789 787 787 785 784 786 789 790 791 790 790 797 798 809 807 806 805 805 805 804 804 805 805 806 821 824 834 847 846 844 837 835 834 835
826 822 817 814 810 806 803 801 797 793 794 795 794 794 794 794 793 792 792 794 795 796 798 800 799 806 812 814 810 808 808 807 807 807 810 814 825 837 845 855 863 843 841 837 837 842 838
829 826 822 819 815 810 807 805 803 800 800 799 798 798 798 798 799 798 798 798 802 807 808 814 817 814 815 814 812 811 809 809 810 815 825 831 848 861 845 841 839 841 842 842 841 842 844
830 828 825 822 819 815 811 809 806 807 804 803 802 804 803 804 803 803 803 805 814 817 814 817 816 815 815 814 816 814 812 815 818 829 827 843 859 845 843 843 844 843 844 848 849 842 846
833 830 828 826 822 819 816 814 811 810 808 807 807 805 805 805 806 807 809 812 815 817 822 820 819 818 819 818 823 822 819 820 828 836 842 848 847 843 843 848 849 852 852 851 855 851 846
834 833 831 828 825 822 820 818 815 814 812 812 811 810 808 807 810 810 811 813 812 814 832 832 823 823 822 821 826 823 822 824 831 843 845 850 844 843 846 850 856 845 849 849 852 864 868
836 834 833 831 828 824 822 820 819 818 817 815 814 813 813 810 813 812 813 807 806 805 839 834 828 823 823 826 829 826 824 824 835 840 842 852 847 846 848 852 848 850 848 850 851 860 878
838 836 834 832 830 826 823 822 820 820 819 818 816 815 815 816 815 815 815 812 811 831 862 842 832 830 829 828 830 828 828 828 836 844 848 852 848 847 847 847 848 849 851 855 857 872 893
839 836 835 833 830 828 825 823 821 820 820 819 818 817 817 818 818 816 815 815 836 861 848 840 835 830 833 835 834 833 837 840 852 867 882 858 851 848 848 850 849 850 864 896 884 901 869
841 838 835 833 831 828 825 823 821 820 819 820 819 819 819 819 819 818 818 827 848 857 845 836 833 835 837 836 836 837 840 857 842 852 880 882 872 849 847 847 848 850 859 896 877 904 884
843 841 837 834 831 828 825 822 820 818 817 818 819 820 819 818 819 820 826 848 857 851 834 833 833 838 838 835 836 837 840 846 841 842 853 878 865 847 849 845 848 851 868 862 891 920 895
845 842 839 836 831 828 824 820 818 816 815 816 818 818 819 819 820 823 835 843 839 837 831 832 834 835 839 837 837 837 840 838 838 838 840 848 867 848 846 845 849 847 856 870 888 893 879
847 844 840 837 833 828 824 819 816 815 814 816 818 821 818 819 821 826 847 845 834 833 831 833 835 835 837 837 837 839 840 838 837 838 837 843 854 854 848 852 853 857 858 861 869 876 879
848 845 842 838 834 829 825 820 817 815 814 816 817 825 817 818 829 839 848 831 828 830 829 830 830 829 833 834 833 835 835 835 835 837 840 842 855 865 848 842 845 848 851 857 868 860 875
849 847 843 840 836 831 826 821 817 815 815 815 820 821 817 817 842 854 832 830 829 830 829 829 830 830 829 831 834 833 834 835 836 836 840 843 857 882 855 851 847 845 847 847 853 861 864
850 848 845 841 837 833 828 823 817 815 814 816 820 832 821 821 832 834 833 832 833 830 829 829 830 829 830 832 833 834 835 836 836 838 838 842 858 854 858 836 843 844 842 843 842 867 841
851 848 845 843 839 834 830 825 819 815 814 816 823 832 832 842 833 830 830 831 832 832 831 831 831 830 831 834 834 835 834 837 839 838 842 846 855 862 851 847 844 835 832 837 839 824 830
853 849 846 844 841 837 832 828 822 817 815 816 825 828 833 836 832 828 835 830 830 829 831 831 831 831 834 834 835 837 834 837 836 844 845 851 856 852 862 838 840 836 829 829 825 820 816
854 851 848 844 842 839 835 831 826 821 817 820 825 826 827 838 837 836 835 829 828 827 829 829 831 833 833 833 830 831 832 833 832 841 847 851 857 859 847 841 840 831 809 811 813 812 805
854 852 849 847 843 841 838 835 831 827 825 824 828 829 829 833 836 833 828 827 828 829 830 830 832 834 832 831 831 831 834 837 839 841 841 851 854 863 857 848 837 788 793 793 797 792 791
852 852 850 848 846 843 840 839 836 833 831 829 830 829 833 833 835 830 829 827 828 831 831 831 830 832 832 834 838 836 837 830 837 840 845 846 849 857 865 873 820 786 782 793 792 779 774
852 851 851 849 848 846 843 841 839 837 835 834 833 831 831 836 831 823 826 826 831 834 834 829 830 830 832 842 844 833 831 823 826 837 846 847 846 851 862 854 823 785 782 783 783 789 764
850 849 849 850 848 846 844 843 840 839 838 837 837 835 833 835 828 827 829 827 828 832 833 833 829 831 832 845 842 846 846 833 829 826 843 850 854 847 848 851 817 789 785 782 785 777 764
850 849 848 847 847 846 845 843 842 840 839 838 840 839 840 839 827 823 823 825 828 830 830 829 831 833 839 840 843 842 845 834 829 826 835 838 848 846 847 850 829 785 789 786 772 765 763
847 847 847 846 845 845 844 843 842 841 840 838 838 839 839 839 829 823 821 821 823 825 826 828 829 827 827 837 843 842 836 838 830 825 827 828 815 824 821 803 779 782 776 771 772 772 767
Wind_Speed
20 21 21 21 18 15 16 17 17 17 19 19 18 18 17 15 14 9 5 8 12 15 20 25 21 14 4 7 3 11 11 8 8 8 9 3 4 4 5 4 2 5 2 4 4 6 3
24 24 21 20 18 16 13 16 17 16 16 17 16 15 15 13 11 7 7 13 16 20 21 23 20 9 5 7 7 10 10 12 10 10 8 8 4 3 6 4 5 3 5 3 4 2 2
26 25 23 21 18 16 15 14 15 12 12 14 12 14 13 12 12 10 11 18 23 21 23 22 16 8 13 2 7 7 11 13 12 9 5 6 3 4 4 5 4 4 4 2 4 3 2
26 26 24 22 19 16 17 15 15 12 10 12 12 14 15 14 13 12 19 20 21 18 20 18 21 15 4 8 10 12 6 9 10 11 11 8 10 7 5 3 6 5 5 2 2 3 2
25 26 24 21 18 17 16 17 18 13 12 13 12 14 15 18 23 20 25 24 19 17 15 14 7 10 2 5 6 13 10 5 8 11 12 7 7 5 6 5 5 6 3 1 4 2 3
24 24 24 21 19 17 16 18 23 16 14 14 14 16 20 23 24 20 23 27 21 16 15 16 11 7 5 2 5 8 7 8 9 4 6 9 6 4 5 5 4 4 3 0 1 5 3
22 23 22 21 19 16 16 18 20 19 17 15 16 15 15 17 18 15 15 4 6 6 12 5 3 4 2 4 7 10 8 4 4 8 4 5 7 3 2 1 3 5 4 2 1 1 4
20 21 21 19 18 15 14 15 15 18 19 17 13 14 11 12 12 12 14 6 3 1 7 7 3 4 4 4 6 12 10 4 5 5 2 7 4 1 1 5 6 5 3 2 4 2 3
19 19 19 18 16 14 13 13 14 15 13 12 14 17 15 20 20 19 18 8 6 3 4 5 2 4 3 6 4 8 6 2 5 6 5 6 2 2 3 4 5 4 4 1 2 7 1
18 18 18 17 15 14 12 10 9 9 9 12 13 11 18 14 8 6 4 6 5 1 5 10 8 5 4 1 5 4 6 3 6 5 4 6 3 3 3 4 3 2 1 2 1 5 2
17 17 17 17 16 13 12 8 7 7 8 10 12 13 8 9 4 4 4 10 9 3 6 6 7 6 6 5 1 8 6 6 4 3 4 2 2 3 4 1 1 2 1 1 1 2 3
16 16 16 15 15 14 11 6 3 4 6 4 3 6 6 5 5 3 7 6 2 6 3 3 4 3 3 5 4 4 5 7 3 5 6 2 1 1 2 1 2 2 2 3 3 3 2
16 16 16 15 13 13 12 9 1 2 5 5 6 8 2 6 4 2 5 4 5 6 3 1 2 4 4 5 4 4 4 4 3 5 4 5 2 2 1 2 1 2 4 3 5 4 5
16 16 16 15 14 13 11 9 5 4 6 7 9 9 9 10 3 3 2 4 10 5 3 3 1 2 4 2 2 2 2 3 2 5 3 4 5 4 3 3 3 1 4 4 5 2 5
15 16 17 17 15 15 14 11 5 5 8 8 8 9 6 2 5 5 4 6 6 6 3 4 2 4 3 2 3 2 1 3 3 4 4 4 4 2 2 1 2 2 1 2 5 2 2
16 17 18 19 18 18 18 15 8 3 6 9 3 2 1 2 6 5 4 4 1 3 0 2 2 2 3 1 2 1 2 2 2 1 2 3 3 2 0 1 2 1 5 3 3 2 5
15 17 19 20 21 20 20 18 9 6 2 9 4 2 1 4 4 4 4 2 3 1 2 3 3 3 3 3 3 3 5 2 4 3 2 4 3 2 1 5 7 2 1 2 3 4 4
15 17 19 21 23 23 23 19 10 7 3 6 3 2 1 2 4 2 2 4 3 1 3 2 2 2 2 1 1 1 2 1 4 5 3 1 3 3 8 2 4 4 7 6 4 5 4
15 16 19 21 24 25 25 23 12 6 2 2 2 1 1 1 4 2 1 2 1 1 1 2 3 3 2 2 2 1 1 3 4 2 3 2 1 3 7 4 2 4 5 4 3 3 7
14 16 19 22 25 27 26 25 19 8 1 3 3 2 4 4 1 6 4 2 2 1 1 1 1 1 2 1 1 1 1 1 2 3 5 3 3 6 6 4 3 4 6 7 8 3 4
12 15 18 20 23 27 28 26 26 10 5 1 3 1 3 1 3 3 2 4 3 3 1 1 0 2 3 2 2 3 2 1 1 3 2 4 4 4 6 10 8 14 12 8 14 18 10
10 13 17 19 22 24 27 29 26 20 5 6 3 3 3 1 1 3 4 2 4 1 3 1 2 1 3 4 6 6 4 4 5 1 5 2 3 0 5 9 6 10 14 16 18 19 18
9 12 15 17 20 23 25 27 28 26 9 6 3 1 3 3 1 3 2 2 2 1 0 1 3 1 3 7 4 5 4 2 2 7 7 5 2 3 6 4 8 7 7 12 6 6 10
8 10 13 15 16 20 22 24 26 25 22 7 5 2 3 1 1 3 3 2 2 2 2 1 3 3 2 3 4 2 1 4 4 6 4 5 4 2 4 6 3 5 6 7 12 8 16
4 8 10 13 15 17 18 21 22 23 18 19 9 3 2 1 2 2 3 3 2 2 3 3 2 2 1 4 2 5 3 1 1 1 6 3 4 2 1 2 10 7 1 5 5 8 9
3 6 8 10 13 16 16 17 18 20 19 11 18 9 3 2 4 2 2 2 3 3 2 2 2 2 4 3 2 1 3 2 1 0 6 4 2 4 1 1 5 4 1 1 2 5 3
4 5 6 8 11 13 14 14 15 16 18 13 9 17 3 1 3 2 3 3 4 2 2 2 2 2 2 2 1 2 3 2 2 3 4 3 2 8 6 4 9 7 5 1 2 5 1
8 7 7 7 8 10 11 10 11 12 15 15 5 13 7 2 4 3 2 2 1 2 3 3 3 1 2 3 3 3 3 3 2 3 5 7 6 4 4 4 9 6 5 6 4 3 3
12 11 10 8 7 7 8 9 8 10 10 10 3 12 13 4 4 4 7 6 3 2 3 1 2 1 4 3 1 2 3 2 4 3 2 3 6 5 10 8 4 5 6 6 3 5 8
Wind_Direction
5 7 11 16 21 31 27 28 35 35 40 44 53 62 70 72 71 50 70 90 98 123 135 137 137 136 101 49 37 352 20 44 39 74 69 81 69 98 101 101 84 78 94 59 77 50 65
11 11 14 22 33 37 33 41 43 43 41 49 54 56 65 63 63 77 90 106 112 125 121 148 137 114 63 70 341 1 40 62 67 73 63 49 93 107 93 66 63 75 84 84 47 32 42
14 17 23 32 38 35 31 37 36 41 51 60 62 62 53 51 59 71 104 106 106 113 130 136 157 141 60 76 18 48 52 56 57 73 74 43 106 78 128 93 137 108 74 21 24 32 18
16 21 30 37 40 38 33 35 33 34 59 60 60 53 52 55 58 84 111 110 104 109 137 145 113 115 60 20 61 44 50 67 69 66 69 54 79 92 57 111 36 62 54 74 334 13 21
21 23 33 41 43 42 33 33 28 49 65 71 54 53 63 70 75 87 97 100 88 92 112 112 90 88 73 21 24 21 36 50 69 67 51 57 61 70 28 76 42 12 146 172 329 27 339
24 27 31 40 41 47 42 42 42 80 85 78 72 75 76 77 87 98 84 86 77 85 92 96 58 68 2 347 347 6 34 57 62 40 27 37 44 72 35 52 194 180 132 96 267 349 344
29 30 34 39 44 53 48 57 59 76 77 77 89 92 70 75 84 96 82 55 28 25 39 64 291 73 52 335 40 19 10 22 39 50 66 17 66 78 56 42 120 105 85 71 267 112 341
32 36 34 40 41 48 57 64 67 74 87 90 85 71 72 49 66 91 69 73 59 41 42 23 67 70 62 14 44 356 16 67 49 77 39 28 82 261 323 59 83 59 89 327 292 317 350
35 37 39 42 45 39 53 76 81 78 85 85 85 86 87 94 94 85 70 76 62 50 87 334 6 21 341 29 50 346 17 59 76 52 30 104 149 309 81 43 72 42 111 66 237 322 256
37 37 38 40 43 36 46 64 90 84 89 97 106 78 125 105 57 30 46 11 358 296 90 339 357 24 15 13 51 353 11 83 45 119 78 81 334 66 61 65 94 118 172 92 31 33 275
36 37 36 34 36 33 33 55 87 86 87 105 100 105 130 58 70 48 355 342 351 13 72 323 325 321 355 67 196 352 12 32 73 78 79 257 62 59 60 188 148 163 164 184 186 84 30
30 34 34 34 30 29 23 51 96 136 148 134 149 123 76 30 15 14 349 4 356 41 49 323 298 352 44 24 30 335 35 49 117 72 38 70 268 65 149 83 72 102 91 45 40 86 13
27 28 30 29 30 27 21 15 30 236 202 202 192 194 345 343 344 281 340 15 52 74 271 1 45 33 59 20 35 46 25 27 99 79 2 353 342 321 158 87 358 100 58 343 351 7 227
29 29 27 27 23 23 16 10 344 235 244 223 224 228 261 296 282 268 55 54 66 216 232 232 140 75 89 22 43 52 78 37 65 87 98 132 319 189 171 227 182 140 122 146 233 274 286
23 27 28 26 21 15 11 3 340 261 234 241 250 264 259 213 190 166 65 51 171 211 175 138 77 72 17 37 127 92 80 181 207 175 135 127 299 324 187 52 104 147 52 171 102 88 3
25 23 24 26 24 17 10 2 0 304 236 218 222 277 272 179 167 148 78 113 80 221 166 69 112 159 146 199 93 93 207 217 187 167 132 190 54 217 311 97 40 122 155 56 16 360 291
24 23 23 24 25 23 17 8 10 357 111 164 187 72 28 156 165 65 97 131 133 198 166 166 172 129 153 170 171 198 186 220 195 156 91 132 101 282 94 201 180 126 198 103 124 164 204
26 25 25 24 25 24 23 18 15 20 121 151 121 51 17 150 46 22 75 131 171 60 50 66 74 74 129 139 71 78 200 250 164 142 129 55 133 218 218 211 180 180 193 156 142 225 234
31 30 28 27 26 25 23 21 17 12 190 163 98 234 28 191 100 3 5 59 69 100 359 53 51 46 45 100 55 69 45 17 134 116 144 174 17 346 344 6 48 215 205 182 126 96 203
29 31 31 27 26 24 24 22 19 14 360 168 85 38 339 51 82 118 130 153 126 257 156 145 152 84 80 56 48 220 218 239 182 136 129 104 172 196 203 203 145 218 213 203 186 173 211
26 29 28 28 28 23 21 22 21 27 54 51 33 185 187 354 3 85 99 159 144 178 239 197 155 195 159 163 189 213 187 140 127 168 98 125 235 200 258 260 247 248 242 213 213 225 218
13 20 23 22 24 25 21 19 22 22 46 76 104 118 16 93 358 58 7 213 164 195 148 247 202 186 190 200 198 206 156 197 203 110 163 170 256 6 271 263 255 262 248 236 240 246 255
358 9 15 17 19 21 22 21 21 28 39 72 44 80 107 320 63 98 216 161 220 97 265 212 194 128 254 242 226 230 213 217 196 166 185 162 181 24 272 311 302 289 243 207 202 209 211
351 360 7 14 17 19 21 22 22 26 35 62 42 353 83 194 140 180 176 152 181 225 243 235 145 160 285 356 316 337 296 254 195 226 180 151 140 164 277 332 316 248 218 183 207 232 212
350 347 4 9 12 18 21 22 22 23 27 44 35 61 59 171 189 271 203 189 129 357 191 214 228 201 353 39 2 331 336 274 137 171 212 189 138 289 272 251 293 303 206 132 170 284 218
318 346 348 5 6 11 14 20 20 20 21 23 29 19 79 91 256 164 162 186 184 178 338 215 136 130 79 76 49 276 250 286 254 126 38 118 82 154 117 283 262 258 291 116 133 290 208
279 311 332 347 355 5 8 14 16 15 16 17 26 15 14 82 254 157 211 190 138 124 178 282 175 86 63 106 160 218 276 226 265 212 171 113 150 216 222 263 279 252 202 350 39 260 132
267 280 296 314 333 345 354 5 7 8 9 14 16 14 19 314 277 199 229 165 89 146 174 200 74 321 81 144 165 217 202 243 287 194 182 178 157 196 158 223 273 156 79 174 230 293 275
261 269 273 285 293 306 334 345 353 354 356 7 16 353 339 220 270 274 255 252 263 355 158 162 248 168 183 104 223 142 226 215 180 253 192 247 196 182 190 219 226 206 245 258 291 283 288